Regional Weather Roundup
Issued by NWS

Home | Current Version | Previous Version | Graphics & Text | Print | Product List | Glossary On
Versions: 1 2 3 4 5 6 7 8 9 10 11 12 13 14 15 16 17 18 19 20 21 22 23 24 25 26 27 28 29 30 31 32 33 34 35 36 37 38 39 40 41 42 43 44 45 46 47 48 49 50
000
ASUS45 KBOU 301007
RWRCO

WEATHER ROUNDUP FOR COLORADO
NATIONAL WEATHER SERVICE DENVER/BOULDER CO
300 AM MST FRI JAN 30 2015

NOTE: "FAIR" INDICATES FEW OR NO CLOUDS BELOW 12000 FEET WITH NO
SIGNIFICANT WEATHER AND/OR OBSTRUCTIONS TO VISIBILITY.

COZ001>005-013-030-031-301100-
...NORTHWEST COLORADO...

CITY           SKY/WX    TMP DP  RH WIND       PRES   REMARKS
CRAIG            N/A     31  29  92 CALM      30.28F
HAYDEN         CLOUDY    32  27  80 E6        30.27F WCI  26
MEEKER         CLOUDY    32  30  92 S3        30.26F
MOUNT WERNER   NOT AVBL
STEAMBOAT SPGS CLOUDY    28  23  81 CALM      30.28F
WALDEN         CLOUDY    28  19  69 SE3       30.27F
$$

COZ006>008-011-301100-
...WEST CENTRAL VALLEYS...

CITY           SKY/WX    TMP DP  RH WIND       PRES   REMARKS
GRAND JUNCTION CLOUDY    39  32  76 CALM      30.23F
MONTROSE       CLOUDY    38  29  70 S9        30.27S
EAGLE          CLOUDY    34  28  80 CALM      30.30F
RIFLE          CLOUDY    36  29  75 S3        30.25F
DELTA          CLOUDY    40  31  68 NW5       30.25S
NUCLA          DRIZZLE   37  36  93 S3        30.28F
$$

COZ017>023-064>068-301100-
...SOUTHWEST COLORADO...

CITY           SKY/WX    TMP DP  RH WIND       PRES   REMARKS
DURANGO        CLOUDY    34  31  88 NE10      30.30F WCI  26
CORTEZ         CLOUDY    43  29  57 CALM      30.25F
PAGOSA SPRINGS LGT SNOW  33  33 100 SE5       30.34S WCI  28
TELLURIDE      LGT SNOW  32  32 100 CALM      30.27F
WOLF CREEK PAS NOT AVBL
$$

COZ009-010-012-014-032>034-037-058>063-301100-
...CENTRAL COLORADO...

CITY           SKY/WX    TMP DP  RH WIND       PRES   REMARKS
ASPEN          CLOUDY    28  21  75 CALM      30.26F
BUENA VISTA    CLOUDY    29  24  84 CALM      30.32F
COPPER MTN     CLOUDY    27  19  74 S9        30.32F WCI  17
BERTHOUD PASS  CLOUDY    18  12  79 N7        30.33F WCI   8
COTTONWOOD PAS CLOUDY    28  23  80 CALM      30.31F
GUNNISON       MOCLDY    27  18  69 NE3       30.32F
KREMMLING      CLOUDY    23  19  86 CALM      30.32F
LEADVILLE      CLOUDY    19  17  92 CALM      30.30F
MONARCH PASS   CLOUDY    23  21  93 MISG      30.43F
SALIDA         CLOUDY    30  26  86 CALM      30.40F
SUNLIGHT       CLOUDY    28  27  93 CALM      30.29F
WILKERSON PASS LGT SNOW  23  21  93 SW13G21   30.32F VSB 3/4 WCI  11
$$

COZ069>075-301100-
...SAN LUIS VALLEY/SANGRE DE CRISTO MOUNTAINS...

CITY           SKY/WX    TMP DP  RH WIND       PRES   REMARKS
ALAMOSA        LGT SNOW  29  27  92 S8        30.33F FOG     WCI  21
LA VETA PASS   CLOUDY    23  21  93 S8G17     30.31F FOG     WCI  14
SAGUACHE       LGT SNOW  32  32 100 SE7       30.34F WCI  26
$$

COZ035-036-038>040-301100-
...NORTHERN COLORADO FRONT RANGE...

CITY           SKY/WX    TMP DP  RH WIND       PRES   REMARKS
DENVER INTL AP CLOUDY    36  23  59 W3        30.23F
DMNS CITY PARK   N/A     34  25  70 N3        30.23F
AURORA         MOCLDY    37  23  58 SW9       30.23F
FRONT RANGE AP NOT AVBL
ERIE MUNI ARPT CLOUDY    29  27  90 CALM      30.25F
BOULDER MUN AP CLOUDY    34  25  69 CALM      30.24F
CENTENNIAL     CLOUDY    35  24  64 S3        30.22F
BROOMFIELD     CLOUDY    34  25  69 N8        30.24F WCI  27
FORT COLLINS   CLOUDY    28  21  74 N6        30.26F WCI  22
LONGMONT       CLOUDY    31  25  79 CALM      30.27F
$$

COZ041-046-047-076>085-087-088-301100-
...PIKES PEAK/PALMER DIVIDE AND SOUTHERN FOOTHILLS...

CITY           SKY/WX    TMP DP  RH WIND       PRES   REMARKS
COLO. SPRINGS  CLOUDY    32  24  72 E7        30.29F WCI  26
A. F. ACADEMY  CLOUDY    30  21  70 S3        30.28F
ELLICOTT       MOCLDY   N/A N/A N/A S9        30.28F
FALCON         MOCLDY    29  22  75 S5        30.29F WCI  24
FORT CARSON    MOCLDY    29  23  78 N3        30.28F
LIMON          MOCLDY    30  21  69 SE16      30.29F WCI  19
MONUMENT HILL  CLOUDY    32  23  69 S16       30.24F WCI  21
TRINIDAD       CLOUDY    39  25  57 W12G18    30.32F
$$

COZ042>045-048>051-090-091-301100-
...NORTHEAST COLORADO...

CITY           SKY/WX    TMP DP  RH WIND       PRES   REMARKS
GREELEY ARPT   CLOUDY    27  19  74 NW5       30.24F WCI  21
AKRON          CLOUDY    34  20  56 S16       30.29F WCI  24
BURLINGTON     MOCLDY    30  21  69 S12       30.36F WCI  20
WRAY           CLOUDY    31  24  73 S5        30.35F WCI  27
STERLING       CLOUDY    30  23  74 S3        30.29F
HOLYOKE        NOT AVBL
FORT MORGAN    CLOUDY    31  23  73 SE6       30.28F WCI  25
$$

COZ086-089-092>099-301100-
...SOUTHEAST COLORADO...

CITY           SKY/WX    TMP DP  RH WIND       PRES   REMARKS
PUEBLO         CLOUDY    32  24  72 N3        30.30F
LA JUNTA       CLOUDY    42  27  55 S8        30.33F
LAMAR          CLOUDY    40  27  59 SE3       30.35F
SPRINGFIELD      N/A     35  28  75 S9        30.38F WCI  28
$$


USA.gov is the U.S. government's official web portal to all federal, state and local government web resources and services.